This is the latest recevied weather packets stored in our database for station/object SV9TNF-51. If no packets are shown the sender has not sent any weather packets the latest 10 day(s).
| Time | Temp. | Humidity | Pressure | Rain* | Wind** | Luminosity | Snow |
|---|---|---|---|---|---|---|---|
| 1788331418 | 30° C | 47% | 1011.9 hPa | 0 mm | 2.24 m/s, 124° | - | - |
| 1788331118 | 29.44° C | 52% | 1011.9 hPa | 0 mm | 1.79 m/s, 166° | - | - |
| 1788330818 | 29.44° C | 54% | 1011.9 hPa | 0 mm | 0.45 m/s, 98° | - | - |
| 1788330518 | 28.89° C | 57% | 1011.9 hPa | 0 mm | 0.89 m/s, 167° | - | - |
| 1788330218 | 28.89° C | 60% | 1011.9 hPa | 0 mm | 3.13 m/s, 131° | - | - |
| 1788329918 | 28.33° C | 59% | 1011.9 hPa | 0 mm | 1.34 m/s, 156° | - | - |
| 1788329618 | 28.33° C | 62% | 1011.9 hPa | 0 mm | 1.79 m/s, 124° | - | - |
| 1788329318 | 27.78° C | 62% | 1011.9 hPa | 0 mm | 3.58 m/s, 143° | - | - |
| 1788329017 | 27.78° C | 64% | 1011.9 hPa | 0 mm | 1.34 m/s, 138° | - | - |
| 1788328717 | 27.22° C | 67% | 1011.9 hPa | 0 mm | 1.34 m/s, 190° | - | - |
| 1788328417 | 26.67° C | 67% | 1011.9 hPa | 0 mm | 4.02 m/s, 170° | - | - |
| 1788328117 | 26.67° C | 68% | 1011.9 hPa | 0 mm | 3.13 m/s, 139° | - | - |
| 1788327817 | 26.11° C | 70% | 1011.9 hPa | 0 mm | 0 m/s | - | - |
| 1788327528 | 25.56° C | 71% | 1011.9 hPa | 0 mm | 4.92 m/s, 152° | - | - |
| 1788327216 | 25.56° C | 73% | 1011.9 hPa | 0 mm | 2.68 m/s, 174° | - | - |
| 1788326917 | 24.44° C | 73% | 1011.9 hPa | 0 mm | 2.68 m/s, 189° | - | - |
| 1788326616 | 24.44° C | 73% | 1011.9 hPa | 0 mm | 3.13 m/s, 142° | - | - |
| 1788326316 | 24.44° C | 73% | 1011.9 hPa | 0 mm | 3.13 m/s, 167° | - | - |
| 1788326016 | 24.44° C | 72% | 1011.9 hPa | 0 mm | 4.92 m/s, 188° | - | - |
| 1788325716 | 25° C | 77% | 1011.9 hPa | 0 mm | 1.79 m/s, 148° | - | - |
| 1788325416 | 24.44° C | 77% | 1011.9 hPa | 0 mm | 0 m/s | - | - |
| 1788325116 | 24.44° C | 75% | 1011.9 hPa | 0 mm | 0.45 m/s, 128° | - | - |
| 1788324816 | 23.89° C | 72% | 1011.9 hPa | 0 mm | 4.47 m/s, 336° | - | - |
| 1788324516 | 23.33° C | 73% | 1011.5 hPa | 0 mm | 3.13 m/s, 353° | - | - |
| 1788324216 | 23.33° C | 74% | 1011.5 hPa | 0 mm | 2.68 m/s, 330° | - | - |
* Rain latest hour (hover to see other rain measurements)
** Current wind speed in m/s (hover to see current wind gust speed)